| time (UTC) | temp F | wind direction | speed knots | gust knots | rain 1hr in | rain 24hr in | rain mn in | humidity % | barometer mb |
| 20260506073043 | 44 | 34 | 2.6 | 3.5 | 0.00 | 0.00 | 0.00 | 69 | 987.8 |
| 20260506072543 | 44 | 19 | 2.6 | 3.5 | 0.00 | 0.00 | 0.00 | 70 | 988.1 |
| 20260506072042 | 44 | 29 | 0.9 | 1.7 | 0.00 | 0.00 | 0.00 | 71 | 988.1 |
| 20260506071542 | 44 | 125 | 0.9 | 2.6 | 0.00 | 0.00 | 0.00 | 70 | 988.1 |
| 20260506071043 | 43 | 60 | 0.9 | 1.7 | 0.00 | 0.00 | 0.00 | 72 | 988.1 |
| 20260506070543 | 43 | 18 | 2.6 | 4.3 | 0.00 | 0.00 | 0.00 | 70 | 988.1 |
| 20260506062043 | 42 | 15 | 0.0 | 0.9 | 0.00 | 0.00 | 0.00 | 79 | 988.1 |
| 20260506061542 | 41 | 63 | 1.7 | 1.7 | 0.00 | 0.00 | 0.00 | 79 | 987.8 |
| 20260506061042 | 41 | 44 | 1.7 | 2.6 | 0.00 | 0.00 | 0.00 | 80 | 988.1 |
| 20260506060542 | 41 | 52 | 0.0 | 0.9 | 0.00 | 0.00 | 0.00 | 81 | 987.8 |
| 20260506051043 | 40 | 38 | 0.0 | 0.9 | 0.00 | 0.00 | 0.00 | 80 | 988.1 |
| 20260506050542 | 40 | 44 | 0.9 | 0.9 | 0.00 | 0.00 | 0.00 | 80 | 987.8 |
| 20260506045043 | 39 | 58 | 0.0 | 0.0 | 0.00 | 0.00 | 0.00 | 81 | 987.8 |
| 20260506044542 | 39 | 46 | 0.0 | 0.9 | 0.00 | 0.00 | 0.00 | 82 | 987.8 |
| 20260506044043 | 39 | 51 | 0.0 | 0.0 | 0.00 | 0.00 | 0.00 | 82 | 988.1 |
| 20260506043542 | 39 | 37 | 0.0 | 0.0 | 0.00 | 0.00 | 0.00 | 82 | 987.8 |
| 20260506043043 | 39 | 62 | 0.0 | 0.0 | 0.00 | 0.00 | 0.00 | 81 | 987.8 |
| 20260506042543 | 39 | 108 | 1.7 | 1.7 | 0.00 | 0.00 | 0.00 | 81 | 987.8 |
| 20260506042042 | 39 | 93 | 0.0 | 0.0 | 0.00 | 0.00 | 0.00 | 80 | 987.8 |
| 20260506041542 | 39 | 48 | 0.9 | 1.7 | 0.00 | 0.00 | 0.00 | 80 | 987.8 |
| 20260506041042 | 39 | 66 | 0.0 | 0.0 | 0.00 | 0.00 | 0.00 | 80 | 987.8 |
| 20260506040542 | 39 | 64 | 0.0 | 0.9 | 0.00 | 0.00 | 0.00 | 80 | 987.8 |
| 20260506040042 | 39 | 45 | 0.0 | 0.0 | 0.00 | 0.00 | 0.00 | 80 | 987.8 |
| 20260506035542 | 39 | 7 | 0.0 | 0.0 | 0.00 | 0.00 | 0.00 | 80 | 987.8 |
| 20260506035044 | 40 | 42 | 0.0 | 0.9 | 0.00 | 0.00 | 0.00 | 80 | 987.8 |
| 20260506034542 | 40 | 53 | 0.0 | 0.0 | 0.00 | 0.00 | 0.00 | 80 | 988.1 |
| 20260506034043 | 40 | 77 | 0.0 | 0.9 | 0.00 | 0.00 | 0.00 | 80 | 987.8 |
| 20260506033542 | 40 | 56 | 0.0 | 0.9 | 0.00 | 0.00 | 0.00 | 79 | 987.8 |
| 20260506033042 | 40 | 60 | 0.0 | 0.9 | 0.00 | 0.00 | 0.00 | 79 | 988.1 |
| 20260506032543 | 40 | 72 | 0.9 | 1.7 | 0.00 | 0.00 | 0.00 | 78 | 988.1 |
| 20260506032042 | 40 | 47 | 0.0 | 0.0 | 0.00 | 0.00 | 0.00 | 78 | 988.1 |
| 20260506031542 | 40 | 62 | 0.0 | 0.0 | 0.00 | 0.00 | 0.00 | 77 | 988.1 |
| 20260506031043 | 41 | 26 | 0.9 | 0.9 | 0.00 | 0.00 | 0.00 | 77 | 988.1 |
| 20260506030542 | 40 | 63 | 1.7 | 1.7 | 0.00 | 0.00 | 0.00 | 77 | 988.1 |
| 20260506030042 | 41 | 27 | 0.0 | 0.9 | 0.00 | 0.00 | 0.00 | 77 | 988.1 |
| 20260506025543 | 41 | 52 | 0.0 | 0.9 | 0.00 | 0.00 | 0.00 | 77 | 988.1 |
| 20260506025043 | 41 | 58 | 0.9 | 1.7 | 0.00 | 0.00 | 0.00 | 77 | 988.1 |
| 20260506024542 | 41 | 63 | 0.0 | 0.9 | 0.00 | 0.00 | 0.00 | 77 | 988.1 |
| 20260506024043 | 41 | 88 | 0.9 | 1.7 | 0.00 | 0.00 | 0.00 | 77 | 988.1 |
| 20260506023543 | 41 | 57 | 0.0 | 0.9 | 0.00 | 0.00 | 0.00 | 77 | 988.1 |
| 20260506023042 | 41 | 46 | 0.9 | 1.7 | 0.00 | 0.00 | 0.00 | 77 | 987.8 |
| 20260506022543 | 41 | 36 | 0.9 | 1.7 | 0.00 | 0.00 | 0.00 | 77 | 988.1 |
| 20260506022042 | 41 | 39 | 0.0 | 0.0 | 0.00 | 0.00 | 0.00 | 76 | 987.8 |
| 20260506021542 | 41 | 102 | 0.0 | 0.9 | 0.00 | 0.00 | 0.00 | 76 | 988.1 |
| 20260506021043 | 41 | 90 | 0.9 | 1.7 | 0.00 | 0.00 | 0.00 | 75 | 988.1 |
| 20260506020543 | 41 | 11 | 0.9 | 1.7 | 0.00 | 0.00 | 0.00 | 75 | 988.1 |
| 20260506020043 | 42 | 31 | 0.9 | 1.7 | 0.00 | 0.00 | 0.00 | 75 | 988.1 |
| 20260506015543 | 42 | 31 | 0.9 | 1.7 | 0.00 | 0.00 | 0.00 | 75 | 988.1 |
| 20260506015043 | 42 | 58 | 0.9 | 0.9 | 0.00 | 0.00 | 0.00 | 75 | 988.1 |
| 20260506014542 | 42 | 74 | 0.9 | 1.7 | 0.00 | 0.00 | 0.00 | 74 | 988.1 |
| 20260506014042 | 42 | 62 | 0.9 | 1.7 | 0.00 | 0.00 | 0.00 | 74 | 988.1 |
| 20260506013543 | 42 | 23 | 0.9 | 1.7 | 0.00 | 0.00 | 0.00 | 74 | 988.1 |
| 20260506013043 | 42 | 58 | 0.9 | 1.7 | 0.00 | 0.00 | 0.00 | 74 | 988.1 |
| 20260506012543 | 42 | 39 | 1.7 | 2.6 | 0.00 | 0.00 | 0.00 | 74 | 988.5 |
| 20260506012042 | 42 | 56 | 2.6 | 3.5 | 0.00 | 0.00 | 0.00 | 73 | 988.5 |
| 20260506011543 | 43 | 38 | 2.6 | 3.5 | 0.00 | 0.00 | 0.00 | 73 | 988.5 |
| 20260506011043 | 43 | 80 | 0.0 | 0.9 | 0.00 | 0.00 | 0.00 | 74 | 988.1 |
| 20260506010543 | 43 | 28 | 0.0 | 0.9 | 0.00 | 0.00 | 0.00 | 74 | 988.5 |
| 20260506010043 | 43 | 67 | 0.0 | 0.9 | 0.00 | 0.00 | 0.00 | 74 | 988.5 |
| 20260506005543 | 43 | 69 | 0.9 | 1.7 | 0.00 | 0.00 | 0.00 | 73 | 988.5 |
| 20260506005043 | 43 | 70 | 0.9 | 1.7 | 0.00 | 0.00 | 0.00 | 73 | 988.5 |
| 20260506004542 | 43 | 96 | 0.0 | 0.9 | 0.00 | 0.00 | 0.00 | 73 | 988.5 |
| 20260506004043 | 43 | 62 | 0.0 | 0.9 | 0.00 | 0.00 | 0.00 | 72 | 988.5 |
| 20260506003542 | 43 | 33 | 1.7 | 3.5 | 0.00 | 0.00 | 0.00 | 71 | 988.5 |
| 20260506003042 | 43 | 20 | 0.9 | 1.7 | 0.00 | 0.00 | 0.00 | 71 | 988.5 |
| 20260506002545 | 43 | 110 | 0.9 | 1.7 | 0.00 | 0.00 | 0.00 | 70 | 988.5 |
| 20260506002042 | 43 | 71 | 2.6 | 2.6 | 0.00 | 0.00 | 0.00 | 71 | 988.5 |
| 20260506001543 | 43 | 64 | 0.9 | 1.7 | 0.00 | 0.00 | 0.00 | 71 | 988.5 |
| 20260506001044 | 43 | 49 | 2.6 | 3.5 | 0.00 | 0.00 | 0.00 | 71 | 988.5 |
| 20260506000542 | 43 | 26 | 1.7 | 1.7 | 0.00 | 0.00 | 0.00 | 71 | 988.1 |
| 20260506000043 | 43 | 48 | 1.7 | 2.6 | 0.00 | 0.00 | 0.00 | 71 | 988.5 |
| 20260505235543 | 43 | 28 | 1.7 | 2.6 | 0.00 | 0.00 | 0.00 | 72 | 988.5 |
| 20260505235043 | 43 | 54 | 0.9 | 1.7 | 0.00 | 0.00 | 0.00 | 72 | 988.5 |
| 20260505234542 | 43 | 52 | 1.7 | 2.6 | 0.00 | 0.00 | 0.00 | 73 | 988.5 |
| 20260505234042 | 43 | 34 | 1.7 | 2.6 | 0.00 | 0.00 | 0.00 | 72 | 988.5 |
| 20260505233542 | 43 | 84 | 0.0 | 0.0 | 0.00 | 0.00 | 0.00 | 73 | 988.5 |
| 20260505233043 | 43 | 92 | 0.9 | 1.7 | 0.00 | 0.00 | 0.00 | 72 | 988.5 |
| 20260505232542 | 43 | 160 | 2.6 | 4.3 | 0.00 | 0.00 | 0.00 | 72 | 988.5 |
| 20260505232042 | 43 | 60 | 0.0 | 0.9 | 0.00 | 0.00 | 0.00 | 72 | 988.5 |
| 20260505231543 | 43 | 30 | 1.7 | 1.7 | 0.00 | 0.00 | 0.00 | 72 | 988.5 |
| 20260505231042 | 43 | 16 | 0.9 | 1.7 | 0.00 | 0.00 | 0.00 | 71 | 988.8 |
| 20260505230545 | 43 | 12 | 0.9 | 1.7 | 0.00 | 0.00 | 0.00 | 72 | 988.5 |
| 20260505230042 | 43 | 39 | 0.0 | 0.9 | 0.00 | 0.00 | 0.00 | 72 | 988.5 |
| 20260505225542 | 43 | 17 | 1.7 | 1.7 | 0.00 | 0.00 | 0.00 | 72 | 988.5 |
| 20260505225043 | 43 | 52 | 0.9 | 1.7 | 0.00 | 0.00 | 0.00 | 72 | 988.5 |
| 20260505224543 | 43 | 24 | 1.7 | 1.7 | 0.00 | 0.00 | 0.00 | 71 | 988.8 |
| 20260505224042 | 44 | 72 | 1.7 | 2.6 | 0.00 | 0.00 | 0.00 | 71 | 988.8 |
| 20260505223542 | 44 | 77 | 0.0 | 0.9 | 0.00 | 0.00 | 0.00 | 70 | 988.8 |
| 20260505223044 | 44 | 32 | 0.9 | 1.7 | 0.00 | 0.00 | 0.00 | 70 | 988.8 |
| 20260505222545 | 44 | 45 | 1.7 | 1.7 | 0.00 | 0.00 | 0.00 | 70 | 988.8 |
| 20260505222043 | 44 | 35 | 2.6 | 3.5 | 0.00 | 0.00 | 0.00 | 69 | 988.8 |
| 20260505221543 | 44 | 28 | 1.7 | 1.7 | 0.00 | 0.00 | 0.00 | 70 | 988.8 |
| 20260505221043 | 44 | 25 | 2.6 | 2.6 | 0.00 | 0.00 | 0.00 | 70 | 988.8 |
| 20260505220543 | 44 | 63 | 2.6 | 3.5 | 0.00 | 0.00 | 0.00 | 69 | 988.8 |
| 20260505220043 | 44 | 55 | 1.7 | 1.7 | 0.00 | 0.00 | 0.00 | 69 | 988.8 |
| 20260505215543 | 44 | 35 | 1.7 | 3.5 | 0.00 | 0.00 | 0.00 | 69 | 988.8 |
| 20260505215044 | 44 | 74 | 0.9 | 1.7 | 0.00 | 0.00 | 0.00 | 70 | 988.8 |
| 20260505214544 | 44 | 53 | 1.7 | 1.7 | 0.00 | 0.00 | 0.00 | 69 | 988.8 |
| 20260505214043 | 44 | 62 | 2.6 | 2.6 | 0.00 | 0.00 | 0.00 | 69 | 988.5 |
| 20260505213543 | 44 | 39 | 2.6 | 3.5 | 0.00 | 0.00 | 0.00 | 69 | 988.8 |
| 20260505213042 | 44 | 12 | 1.7 | 2.6 | 0.00 | 0.00 | 0.00 | 69 | 988.5 |
| 20260505212545 | 44 | 37 | 2.6 | 2.6 | 0.00 | 0.00 | 0.00 | 69 | 988.8 |
| 20260505212043 | 44 | 125 | 0.9 | 1.7 | 0.00 | 0.00 | 0.00 | 69 | 988.5 |
| 20260505211543 | 44 | 71 | 2.6 | 4.3 | 0.00 | 0.00 | 0.00 | 70 | 988.5 |
| 20260505211043 | 44 | 20 | 1.7 | 2.6 | 0.00 | 0.00 | 0.00 | 69 | 988.8 |
| 20260505210543 | 44 | 46 | 3.5 | 5.2 | 0.00 | 0.00 | 0.00 | 69 | 988.5 |
| 20260505210043 | 44 | 30 | 1.7 | 2.6 | 0.00 | 0.00 | 0.00 | 69 | 988.5 |
| 20260505205543 | 44 | 51 | 2.6 | 4.3 | 0.00 | 0.00 | 0.00 | 68 | 988.8 |
| 20260505205046 | 44 | 24 | 1.7 | 3.5 | 0.00 | 0.00 | 0.00 | 69 | 988.5 |
| 20260505204543 | 44 | 52 | 3.5 | 4.3 | 0.00 | 0.00 | 0.00 | 68 | 988.8 |
| 20260505204043 | 44 | 29 | 0.9 | 2.6 | 0.00 | 0.00 | 0.00 | 68 | 988.5 |
| 20260505203543 | 45 | 118 | 3.5 | 4.3 | 0.00 | 0.00 | 0.00 | 67 | 988.5 |
| 20260505203042 | 45 | 53 | 3.5 | 6.1 | 0.00 | 0.00 | 0.00 | 67 | 988.5 |
| 20260505202543 | 45 | 49 | 2.6 | 4.3 | 0.00 | 0.00 | 0.00 | 68 | 988.5 |
| 20260505202043 | 45 | 46 | 3.5 | 4.3 | 0.00 | 0.00 | 0.00 | 67 | 988.1 |
| 20260505201543 | 45 | 31 | 2.6 | 4.3 | 0.00 | 0.00 | 0.00 | 67 | 988.5 |
| 20260505201042 | 45 | 109 | 3.5 | 6.1 | 0.00 | 0.00 | 0.00 | 67 | 988.1 |
| 20260505200543 | 45 | 27 | 5.2 | 7.0 | 0.00 | 0.00 | 0.00 | 67 | 988.1 |
| 20260505200046 | 45 | 30 | 2.6 | 4.3 | 0.00 | 0.00 | 0.00 | 66 | 988.1 |
| 20260505195545 | 45 | 347 | 4.3 | 5.2 | 0.00 | 0.00 | 0.00 | 67 | 988.1 |
| 20260505195045 | 45 | 119 | 3.5 | 4.3 | 0.00 | 0.00 | 0.00 | 66 | 988.5 |
| 20260505194542 | 45 | 35 | 3.5 | 5.2 | 0.00 | 0.00 | 0.00 | 66 | 988.1 |
| 20260505194043 | 45 | 17 | 4.3 | 5.2 | 0.00 | 0.00 | 0.00 | 66 | 988.5 |
| 20260505193542 | 45 | 98 | 4.3 | 6.1 | 0.00 | 0.00 | 0.00 | 66 | 988.1 |
| 20260505193043 | 45 | 53 | 4.3 | 6.1 | 0.00 | 0.00 | 0.00 | 66 | 988.1 |
| 20260505192542 | 45 | 131 | 1.7 | 2.6 | 0.00 | 0.00 | 0.00 | 67 | 988.1 |
| 20260505192043 | 45 | 17 | 2.6 | 3.5 | 0.00 | 0.00 | 0.00 | 66 | 988.1 |
| 20260505191544 | 46 | 86 | 4.3 | 6.1 | 0.00 | 0.00 | 0.00 | 66 | 988.1 |
| 20260505191043 | 46 | 21 | 4.3 | 6.1 | 0.00 | 0.00 | 0.00 | 65 | 988.1 |
| 20260505190542 | 46 | 69 | 6.1 | 7.0 | 0.00 | 0.00 | 0.00 | 67 | 987.8 |
| 20260505190043 | 46 | 45 | 6.1 | 8.7 | 0.00 | 0.00 | 0.00 | 66 | 988.1 |
| 20260505185543 | 46 | 69 | 2.6 | 4.3 | 0.00 | 0.00 | 0.00 | 68 | 988.1 |
| 20260505185043 | 46 | 54 | 7.0 | 8.7 | 0.00 | 0.00 | 0.00 | 67 | 987.8 |
| 20260505184542 | 46 | 113 | 3.5 | 4.3 | 0.00 | 0.00 | 0.00 | 67 | 987.8 |
| 20260505184043 | 46 | 149 | 2.6 | 4.3 | 0.00 | 0.00 | 0.00 | 67 | 987.5 |
| 20260505183543 | 47 | 40 | 2.6 | 4.3 | 0.00 | 0.00 | 0.00 | 68 | 987.8 |
| 20260505183043 | 47 | 66 | 4.3 | 6.1 | 0.00 | 0.00 | 0.00 | 67 | 987.8 |
| 20260505182546 | 47 | 88 | 6.1 | 7.8 | 0.00 | 0.00 | 0.00 | 67 | 987.8 |
| 20260505182043 | 47 | 34 | 4.3 | 4.3 | 0.00 | 0.00 | 0.00 | 68 | 987.5 |
| 20260505181543 | 47 | 65 | 5.2 | 6.1 | 0.00 | 0.00 | 0.00 | 66 | 987.8 |
| 20260505181044 | 47 | 38 | 4.3 | 4.3 | 0.00 | 0.00 | 0.00 | 66 | 987.8 |
| 20260505180543 | 47 | 47 | 7.8 | 10.4 | 0.00 | 0.00 | 0.00 | 65 | 987.8 |
| 20260505180043 | 47 | 19 | 7.0 | 8.7 | 0.00 | 0.00 | 0.00 | 64 | 986.8 |
| 20260505175543 | 48 | 43 | 5.2 | 6.1 | 0.00 | 0.00 | 0.00 | 65 | 987.8 |
| 20260505175043 | 49 | 13 | 6.1 | 6.1 | 0.00 | 0.00 | 0.00 | 64 | 987.5 |
| 20260505174544 | 48 | 47 | 2.6 | 4.3 | 0.00 | 0.00 | 0.00 | 64 | 987.8 |
| 20260505174044 | 48 | 87 | 3.5 | 5.2 | 0.00 | 0.00 | 0.00 | 65 | 987.8 |
| 20260505173543 | 48 | 64 | 1.7 | 3.5 | 0.00 | 0.00 | 0.00 | 65 | 987.5 |
| 20260505173046 | 48 | 55 | 7.8 | 10.4 | 0.00 | 0.00 | 0.00 | 63 | 987.5 |
| 20260505172542 | 48 | 35 | 3.5 | 7.0 | 0.00 | 0.00 | 0.00 | 65 | 987.5 |
| 20260505172044 | 48 | 86 | 2.6 | 6.1 | 0.00 | 0.00 | 0.00 | 64 | 987.5 |
| 20260505171543 | 48 | 27 | 2.6 | 5.2 | 0.00 | 0.00 | 0.00 | 65 | 987.5 |
| 20260505171042 | 48 | 104 | 3.5 | 6.1 | 0.00 | 0.00 | 0.00 | 64 | 987.5 |
| 20260505170542 | 48 | 116 | 4.3 | 7.0 | 0.00 | 0.00 | 0.00 | 65 | 987.5 |
| 20260505170043 | 49 | 54 | 5.2 | 7.8 | 0.00 | 0.00 | 0.00 | 65 | 987.5 |
| 20260505165542 | 49 | 25 | 6.1 | 7.0 | 0.00 | 0.00 | 0.00 | 63 | 987.5 |
| 20260505165042 | 49 | 158 | 7.8 | 11.3 | 0.00 | 0.00 | 0.00 | 63 | 987.5 |
| 20260505164543 | 49 | 13 | 6.1 | 9.6 | 0.00 | 0.00 | 0.00 | 63 | 987.5 |
| 20260505164043 | 50 | 62 | 7.8 | 13.0 | 0.00 | 0.00 | 0.00 | 64 | 987.5 |
| 20260505163152 | 50 | 63 | 7.0 | 10.4 | 0.00 | 0.00 | 0.00 | 64 | 987.5 |
| 20260505162543 | 50 | 57 | 4.3 | 5.2 | 0.00 | 0.00 | 0.00 | 66 | 987.5 |
| 20260505162043 | 50 | 55 | 5.2 | 7.8 | 0.00 | 0.00 | 0.00 | 64 | 987.1 |
| 20260505161543 | 50 | 48 | 6.1 | 8.7 | 0.00 | 0.00 | 0.00 | 64 | 987.1 |
| 20260505161043 | 50 | 55 | 2.6 | 4.3 | 0.00 | 0.00 | 0.00 | 67 | 987.1 |
| 20260505160543 | 50 | 10 | 7.0 | 10.4 | 0.00 | 0.00 | 0.00 | 65 | 987.1 |
| 20260505153043 | 50 | 107 | 6.1 | 9.6 | 0.00 | 0.00 | 0.00 | 65 | 987.1 |
| 20260505152542 | 50 | 6 | 10.4 | 12.2 | 0.00 | 0.00 | 0.00 | 65 | 987.5 |
| 20260505152042 | 50 | 16 | 7.8 | 9.6 | 0.00 | 0.00 | 0.00 | 65 | 987.1 |
| 20260505151544 | 51 | 37 | 5.2 | 7.8 | 0.00 | 0.00 | 0.00 | 65 | 987.1 |
| 20260505151045 | 51 | 4 | 5.2 | 7.8 | 0.00 | 0.00 | 0.00 | 66 | 987.5 |
| 20260505150544 | 51 | 139 | 2.6 | 3.5 | 0.00 | 0.00 | 0.00 | 67 | 987.5 |
| 20260505140543 | 52 | 71 | 10.4 | 13.0 | 0.00 | 0.00 | 0.00 | 64 | 987.1 |
| 20260505124542 | 53 | 35 | 7.8 | 11.3 | 0.00 | 0.00 | 0.00 | 58 | 986.5 |
| 20260505124043 | 55 | 32 | 6.1 | 7.8 | 0.00 | 0.00 | 0.00 | 49 | 986.5 |
| 20260505123544 | 55 | 195 | 1.7 | 1.7 | 0.00 | 0.00 | 0.00 | 43 | 986.5 |
| 20260505123042 | 55 | 345 | 1.7 | 2.6 | 0.00 | 0.00 | 0.00 | 41 | 986.5 |
| 20260505122543 | 55 | 85 | 1.7 | 2.6 | 0.00 | 0.00 | 0.00 | 44 | 986.5 |
| 20260505122042 | 55 | 45 | 3.5 | 4.3 | 0.00 | 0.00 | 0.00 | 44 | 986.5 |
| 20260505121544 | 55 | 333 | 0.9 | 1.7 | 0.00 | 0.00 | 0.00 | 44 | 986.5 |
| 20260505121044 | 55 | 41 | 2.6 | 3.5 | 0.00 | 0.00 | 0.00 | 43 | 986.5 |
| 20260505120543 | 56 | 337 | 0.9 | 1.7 | 0.00 | 0.00 | 0.00 | 40 | 986.5 |
| 20260505120044 | 55 | 23 | 0.9 | 1.7 | 0.00 | 0.00 | 0.00 | 47 | 986.5 |
| 20260505115543 | 55 | 28 | 0.0 | 0.9 | 0.00 | 0.00 | 0.00 | 46 | 986.5 |
| 20260505115043 | 53 | 229 | 2.6 | 3.5 | 0.00 | 0.00 | 0.00 | 46 | 986.5 |
| 20260505114542 | 53 | 70 | 1.7 | 2.6 | 0.00 | 0.00 | 0.00 | 47 | 986.5 |
| 20260505114044 | 53 | 23 | 2.6 | 4.3 | 0.00 | 0.00 | 0.00 | 50 | 986.5 |
| 20260505113542 | 53 | 32 | 3.5 | 4.3 | 0.00 | 0.00 | 0.00 | 49 | 986.5 |
| 20260505113043 | 53 | 132 | 1.7 | 2.6 | 0.00 | 0.00 | 0.00 | 49 | 986.5 |
| 20260505112543 | 53 | 59 | 3.5 | 4.3 | 0.00 | 0.00 | 0.00 | 46 | 986.5 |
| 20260505112043 | 53 | 350 | 2.6 | 4.3 | 0.00 | 0.00 | 0.00 | 48 | 986.5 |
| 20260505111542 | 54 | 21 | 4.3 | 5.2 | 0.00 | 0.00 | 0.00 | 47 | 986.5 |
| 20260505111042 | 55 | 151 | 2.6 | 3.5 | 0.00 | 0.00 | 0.00 | 45 | 986.5 |
| 20260505110542 | 55 | 126 | 0.0 | 1.7 | 0.00 | 0.00 | 0.00 | 45 | 986.5 |
| 20260505102042 | 53 | 65 | 6.1 | 8.7 | 0.00 | 0.00 | 0.00 | 53 | 986.5 |
| 20260505101542 | 54 | 2 | 3.5 | 4.3 | 0.00 | 0.00 | 0.00 | 55 | 986.5 |
| 20260505101042 | 53 | 73 | 2.6 | 2.6 | 0.00 | 0.00 | 0.00 | 56 | 986.5 |
| 20260505100542 | 52 | 60 | 2.6 | 3.5 | 0.00 | 0.00 | 0.00 | 52 | 986.5 |
| 20260505100043 | 53 | 293 | 1.7 | 1.7 | 0.00 | 0.00 | 0.00 | 52 | 986.5 |
| 20260505095542 | 53 | 13 | 0.9 | 1.7 | 0.00 | 0.00 | 0.00 | 53 | 986.5 |
| 20260505095042 | 53 | 124 | 0.0 | 0.0 | 0.00 | 0.00 | 0.00 | 51 | 986.5 |
| 20260505094542 | 51 | 61 | 0.9 | 1.7 | 0.00 | 0.00 | 0.00 | 53 | 986.5 |
| 20260505094044 | 52 | 66 | 2.6 | 4.3 | 0.00 | 0.00 | 0.00 | 52 | 986.5 |
| 20260505093542 | 52 | 52 | 0.9 | 0.9 | 0.00 | 0.00 | 0.00 | 55 | 986.5 |
| 20260505093044 | 52 | 324 | 1.7 | 1.7 | 0.00 | 0.00 | 0.00 | 53 | 986.5 |
| 20260505092544 | 52 | 50 | 0.9 | 1.7 | 0.00 | 0.00 | 0.00 | 54 | 986.5 |
| 20260505092043 | 51 | 18 | 2.6 | 4.3 | 0.00 | 0.00 | 0.00 | 54 | 986.5 |
| 20260505091543 | 51 | 46 | 2.6 | 3.5 | 0.00 | 0.00 | 0.00 | 59 | 986.5 |
| 20260505091042 | 51 | 45 | 3.5 | 4.3 | 0.00 | 0.00 | 0.00 | 58 | 986.5 |
| 20260505090543 | 51 | 6 | 4.3 | 6.1 | 0.00 | 0.00 | 0.00 | 57 | 986.5 |
| 20260505090042 | 51 | 35 | 1.7 | 1.7 | 0.00 | 0.00 | 0.00 | 57 | 986.5 |
| 20260505085542 | 51 | 32 | 0.9 | 1.7 | 0.00 | 0.00 | 0.00 | 56 | 986.5 |
| 20260505085042 | 51 | 28 | 1.7 | 1.7 | 0.00 | 0.00 | 0.00 | 57 | 986.5 |
| 20260505084542 | 51 | 2 | 1.7 | 2.6 | 0.00 | 0.00 | 0.00 | 59 | 986.1 |
| 20260505084045 | 50 | 69 | 2.6 | 3.5 | 0.00 | 0.00 | 0.00 | 58 | 986.1 |
| 20260505083543 | 50 | 49 | 3.5 | 5.2 | 0.00 | 0.00 | 0.00 | 59 | 986.1 |
| 20260505083043 | 50 | 42 | 2.6 | 2.6 | 0.00 | 0.00 | 0.00 | 61 | 986.5 |
| 20260505082542 | 50 | 327 | 1.7 | 2.6 | 0.00 | 0.00 | 0.00 | 61 | 986.1 |
| 20260505082042 | 50 | 20 | 1.7 | 2.6 | 0.00 | 0.00 | 0.00 | 64 | 986.1 |
| 20260505081545 | 50 | 5 | 2.6 | 3.5 | 0.00 | 0.00 | 0.00 | 64 | 986.1 |
| 20260505081044 | 50 | 339 | 2.6 | 3.5 | 0.00 | 0.00 | 0.00 | 64 | 986.1 |
| 20260505080542 | 50 | 19 | 2.6 | 2.6 | 0.00 | 0.00 | 0.00 | 63 | 986.1 |
| 20260505080042 | 50 | 45 | 0.9 | 1.7 | 0.00 | 0.00 | 0.00 | 64 | 986.1 |
| 20260505075542 | 50 | 7 | 2.6 | 3.5 | 0.00 | 0.00 | 0.00 | 63 | 986.1 |
| 20260505075046 | 52 | 10 | 4.3 | 5.2 | 0.00 | 0.00 | 0.00 | 59 | 986.1 |
| 20260505074543 | 51 | 46 | 4.3 | 4.3 | 0.00 | 0.00 | 0.00 | 63 | 986.1 |
| 20260505074042 | 52 | 6 | 1.7 | 4.3 | 0.00 | 0.00 | 0.00 | 64 | 985.8 |
| 20260505073543 | 53 | 29 | 0.9 | 0.9 | 0.00 | 0.00 | 0.00 | 65 | 986.1 |